TimeMDT,TemperatureF,Dew PointF,Humidity,Sea Level PressureIn,VisibilityMPH,Wind Direction,Wind SpeedMPH,Gust SpeedMPH,PrecipitationIn,Events,Conditions,WindDirDegrees,DateUTC
12:53 AM,57.9,50.0,75,29.97,10.0,East,17.3,24.2,N/A,,Clear,100,2013-06-18 06:53:00
1:53 AM,57.0,51.1,81,29.98,10.0,ESE,13.8,-,N/A,,Scattered Clouds,110,2013-06-18 07:53:00
2:20 AM,57.2,51.8,82,30.29,10.0,East,20.7,-,N/A,,Scattered Clouds,100,2013-06-18 08:20:00
2:28 AM,57.2,51.8,82,30.28,10.0,East,20.7,25.3,N/A,,Mostly Cloudy,100,2013-06-18 08:28:00
2:38 AM,57.2,53.6,88,30.28,10.0,ESE,18.4,27.6,N/A,,Mostly Cloudy,110,2013-06-18 08:38:00
2:53 AM,57.0,52.0,83,29.99,10.0,East,15.0,-,N/A,,Mostly Cloudy,80,2013-06-18 08:53:00
3:06 AM,57.2,51.8,82,30.30,10.0,East,15.0,-,N/A,,Scattered Clouds,100,2013-06-18 09:06:00
3:53 AM,57.0,52.0,83,29.99,10.0,East,17.3,-,N/A,,Overcast,100,2013-06-18 09:53:00
4:21 AM,57.2,51.8,82,30.27,10.0,ESE,21.9,-,N/A,,Overcast,110,2013-06-18 10:21:00
4:53 AM,57.0,52.0,83,29.99,10.0,ESE,15.0,-,N/A,,Overcast,110,2013-06-18 10:53:00
5:41 AM,55.4,51.8,88,30.30,10.0,East,18.4,-,N/A,,Overcast,100,2013-06-18 11:41:00
5:53 AM,55.9,52.0,87,30.00,10.0,East,18.4,-,N/A,,Overcast,100,2013-06-18 11:53:00
6:09 AM,55.4,51.8,88,30.30,10.0,East,16.1,24.2,N/A,,Overcast,100,2013-06-18 12:09:00
6:39 AM,55.4,51.8,88,30.31,10.0,East,18.4,23.0,N/A,,Overcast,100,2013-06-18 12:39:00
6:53 AM,55.9,51.1,84,30.03,10.0,East,17.3,23.0,N/A,,Overcast,100,2013-06-18 12:53:00
7:53 AM,57.0,50.0,77,30.05,10.0,ESE,17.3,-,N/A,,Overcast,110,2013-06-18 13:53:00
8:31 AM,57.2,50.0,77,30.33,10.0,ESE,15.0,-,N/A,,Overcast,110,2013-06-18 14:31:00
8:53 AM,59.0,48.9,69,30.08,10.0,ESE,13.8,-,N/A,,Overcast,120,2013-06-18 14:53:00
9:08 AM,59.0,48.2,67,30.34,10.0,ESE,15.0,20.7,N/A,,Overcast,120,2013-06-18 15:08:00
9:53 AM,62.1,48.9,62,30.07,10.0,SE,10.4,19.6,N/A,,Overcast,140,2013-06-18 15:53:00
10:53 AM,69.1,48.0,47,30.04,10.0,SE,12.7,19.6,N/A,,Mostly Cloudy,130,2013-06-18 16:53:00
11:53 AM,71.1,48.0,44,30.02,10.0,SSE,8.1,17.3,N/A,,Mostly Cloudy,150,2013-06-18 17:53:00
12:53 PM,75.9,46.9,36,29.98,10.0,SSW,16.1,20.7,N/A,,Clear,210,2013-06-18 18:53:00
1:53 PM,77.0,45.0,32,29.95,10.0,SSW,12.7,17.3,N/A,,Clear,210,2013-06-18 19:53:00
2:53 PM,81.0,35.1,19,29.91,10.0,WSW,15.0,33.4,N/A,,Partly Cloudy,240,2013-06-18 20:53:00
3:53 PM,82.9,37.0,19,29.87,10.0,SW,19.6,26.5,N/A,,Clear,230,2013-06-18 21:53:00
4:53 PM,82.9,36.0,19,29.85,10.0,South,19.6,27.6,N/A,,Scattered Clouds,190,2013-06-18 22:53:00
5:53 PM,82.9,35.1,18,29.83,10.0,South,5.8,-,N/A,,Scattered Clouds,180,2013-06-18 23:53:00
6:53 PM,82.0,30.9,16,29.82,10.0,WSW,10.4,-,N/A,,Partly Cloudy,250,2013-06-19 00:53:00
7:33 PM,77.0,42.8,29,30.13,10.0,SSE,15.0,20.7,N/A,,Clear,160,2013-06-19 01:33:00
7:53 PM,75.9,44.1,32,29.84,10.0,SSE,18.4,25.3,N/A,,Clear,160,2013-06-19 01:53:00
8:53 PM,72.0,48.0,43,29.85,10.0,SSE,17.3,25.3,N/A,,Clear,160,2013-06-19 02:53:00
9:53 PM,70.0,48.9,47,29.85,10.0,SSE,15.0,-,N/A,,Clear,160,2013-06-19 03:53:00
10:53 PM,68.0,50.0,52,29.84,10.0,South,18.4,24.2,N/A,,Clear,170,2013-06-19 04:53:00
11:53 PM,64.9,50.0,58,29.83,10.0,SSE,12.7,-,N/A,,Clear,160,2013-06-19 05:53:00